VZLUSAT-1 (42790 NORAD) Tracking and Keplerian Element Data

This shows tracking and keplerian element data for the satellite.

Feedback or suggestion? Click here.




ElementValue
Catalog42790
NameVZLUSAT-1
Epoch Orbit8232
Epoch Day350.92551443
Epoch Year2018
RAAN47.9228
Inclination97.3798
Eccentricity0.0012147
Argument of Perigee148.6103
Mean Anonmoly211.5861
Mean Motion15.22850154
Decay Rate1.344E-05
L11 42790U 17036AB 18350.92551443 .00001344 00000-0 60317-4 0 9992
L22 42790 97.3798 47.9228 0012147 148.6103 211.5861 15.22850154 82329

Live tracking and technical data element details for VZLUSAT-1 (NORAD 42790). VZLUSAT-1 can be tracked NOW for your location showing map with azimuth and elevation plus other details from your city location.

Track the satellite on the map from your city or location and see movement details for azimuth, elevation, latitude, longitude, range, height, and movement on the map or in text.







IsCatalogInMostPopularTable: catalog: 42790, numindb: 148
Update: records affected: 1



GetName: 42790 VZLUSAT-1

Hit Count: updated at: Tue, 18 Dec 2018 21:17:47 GMT